{"data":{"norad_id":41918,"epoch":"2026-09-20T04:15:18.338976Z","epoch_age_seconds":43277,"freshness":"FRESH","line1":"1 41918U 17003B   26263.17729559  .00000172  00000+0  54349-4 0  9996","line2":"2 41918  86.3948  48.7092 0002254  88.9868 271.1586 14.34217779506841","mean_motion":14.34217779,"eccentricity":0.0002254,"inclination_deg":86.3948,"raan_deg":48.7092,"arg_perigee_deg":88.9868,"mean_anomaly_deg":271.1586,"bstar":5.4349e-5,"rev_number":50684,"period_min":100.40316199427,"perigee_km":776.05413965821,"apogee_km":779.27997612751,"semimajor_km":7155.8040578929,"source":"CELESTRAK","updated_at":"2026-09-20T09:00:36.319831Z"}}